Location: Albany
(35.0170°S, 117.8920°E)
Time: 09:31:15
(UTC+08:00)

S-56A Canister/Altair - Pass Details

Date: 28 January 2021
Orbit: 632 x 2501 km, 38.9° (Epoch: 25 February)

Event Time Altitude Azimuth Distance (km) Brightness Sun altitude
Rises 09:29:23 0° 357° (N) 4,570 11.6 48.4°
Reaches altitude 10° 09:33:21 10° 13° (NNE) 3,919 11.5 49.2°
Maximum altitude 09:40:17 19° 54° (NE) 3,700 12.1 50.6°
Drops below altitude 10° 09:48:37 10° 93° (E) 4,876 12.4 52.2°
Sets 09:54:21 0° 107° (ESE) 6,085 12.6 53.4°
